This is the latest recevied weather packets stored in our database for station/object IZ1MEU-13. If no packets are shown the sender has not sent any weather packets the latest 10 day(s).
| Time | Temp. | Humidity | Pressure | Rain* | Wind** | Luminosity | Snow |
|---|---|---|---|---|---|---|---|
| 1788538256 | 29.44° C | 37% | 1020.5 hPa | - | - | - | - |
| 1788535848 | 30.56° C | 35% | 1020.6 hPa | - | - | - | - |
| 1788534644 | 31.11° C | 34% | 1020.5 hPa | - | - | - | - |
| 1788533440 | 31.11° C | 34% | 1020.8 hPa | - | - | - | - |
| 1788532236 | 31.11° C | 34% | 1020.9 hPa | - | - | - | - |
| 1788531032 | 31.11° C | 34% | 1020.9 hPa | - | - | - | - |
| 1788528623 | 30° C | 35% | 1021.3 hPa | - | - | - | - |
| 1788527420 | 29.44° C | 35% | 1021.3 hPa | - | - | - | - |
| 1788525013 | 28.33° C | 37% | 1021.8 hPa | - | - | - | - |
| 1788523809 | 28.33° C | 38% | 1022 hPa | - | - | - | - |
| 1788521402 | 27.78° C | 38% | 1022.2 hPa | - | - | - | - |
| 1788520199 | 27.22° C | 39% | 1022.6 hPa | - | - | - | - |
| 1788517792 | 26.11° C | 40% | 1023.1 hPa | - | - | - | - |
| 1788514181 | 25.56° C | 40% | 1023.6 hPa | - | - | - | - |
| 1788512978 | 25° C | 40% | 1023.6 hPa | - | - | - | - |
| 1788511775 | 24.44° C | 41% | 1023.5 hPa | - | - | - | - |
| 1788510571 | 24.44° C | 41% | 1023.4 hPa | - | - | - | - |
| 1788509368 | 23.89° C | 42% | 1023.3 hPa | - | - | - | - |
| 1788506961 | 23.33° C | 43% | 1023.3 hPa | - | - | - | - |
| 1788505757 | 22.78° C | 43% | 1023.3 hPa | - | - | - | - |
| 1788503350 | 21.67° C | 44% | 1023.3 hPa | - | - | - | - |
| 1788502147 | 21.11° C | 45% | 1023.2 hPa | - | - | - | - |
| 1788499740 | 21.11° C | 44% | 1022.9 hPa | - | - | - | - |
| 1788498536 | 21.11° C | 44% | 1022.7 hPa | - | - | - | - |
| 1788497333 | 21.11° C | 44% | 1022.7 hPa | - | - | - | - |
* Rain since midnight (hover to see other rain measurements)
** Current wind speed in m/s (hover to see current wind gust speed)